Weather History for Kansai, Japan

Change the Weather History Date:

Thursday, October 24, 2013

  Actual Average Record
Temperature  
Mean Temperature 70 °F -  
Max Temperature 75 °F 63 °F 77 °F (2000)
Min Temperature 64 °F 53 °F 53 °F (2003)
Cooling Degree Days 4    
Growing Degree Days 20 (Base 50)    
Moisture  
Dew Point 60 °F    
Average Humidity 74    
Maximum Humidity 88    
Minimum Humidity 53    
Precipitation  
Precipitation 0.00 in - - ()
Sea Level Pressure  
Sea Level Pressure 29.89 in    
Wind  
Wind Speed 7 mph ()    
Max Wind Speed 20 mph    
Max Gust Speed -    
Visibility 6.1 miles    
Events Rain    
Averages and records for this station are not official NWS values.
T = Trace of Precipitation, MM = Missing Value Source: Averaged Metar Reports

Daily Weather History Graph

Daily Weather History Graph

Search for Another Location

Airport:

Trip Planner

Search our weather history database for the weather conditions in past years. The results will help you decide how hot, cold, wet, or windy it might be!

Date:

Astronomy

Oct. 24, 2013 Rise Set
Actual Time 6:11 AM JST 5:14 PM JST
Civil Twilight 5:46 AM JST 5:39 PM JST
Nautical Twilight 5:16 AM JST 6:09 PM JST
Astronomical Twilight 4:47 AM JST 6:38 PM JST
Moon 9:11 PM JST (10/24) 10:39 AM JST (10/24)
Length of Visible Light 11h 53m
Length of Day
11h 02m
Waning Gibbous, 76% of the Moon is Illuminated
Oct 24
Waning Gibbous
Oct 27
Last Quarter
Nov 3
New
Nov 10
First Quarter
Nov 18
Full

Hourly Weather History & Observations

Time (JST) Temp. Dew Point Humidity Pressure Visibility Wind Dir Wind Speed Gust Speed Precip Events Conditions
12:00 AM 66.2 °F 60.8 °F 83% 30.01 in 6.2 mi Variable 2.3 mph - N/A   Mostly Cloudy
12:30 AM 66.2 °F 60.8 °F 83% 30.01 in 6.2 mi SSW 3.5 mph - N/A   Mostly Cloudy
1:00 AM 66.2 °F 60.8 °F 83% 30.01 in 6.2 mi Variable 1.2 mph - N/A   Mostly Cloudy
1:30 AM 66.2 °F 59.0 °F 78% 30.01 in 6.2 mi ENE 2.3 mph - N/A   Mostly Cloudy
2:00 AM 68.0 °F 60.8 °F 78% 30.01 in 6.2 mi ESE 3.5 mph - N/A Rain Light Rain
2:30 AM 66.2 °F 62.6 °F 88% 30.01 in 6.2 mi SSE 4.6 mph - N/A Rain Light Rain
3:00 AM 66.2 °F 60.8 °F 83% 29.98 in 6.2 mi ESE 3.5 mph - N/A Rain Light Rain
3:30 AM 64.4 °F 60.8 °F 88% 29.98 in 6.2 mi ENE 4.6 mph - N/A Rain Light Rain
4:00 AM 66.2 °F 60.8 °F 83% 29.98 in 6.2 mi NE 8.1 mph - N/A Rain Light Rain
4:30 AM 66.2 °F 60.8 °F 83% 29.98 in 6.2 mi ENE 10.4 mph - N/A   Mostly Cloudy
5:00 AM 64.4 °F 60.8 °F 88% 29.98 in 6.2 mi ENE 11.5 mph - N/A   Mostly Cloudy
5:30 AM 66.2 °F 60.8 °F 83% 29.98 in 6.2 mi ENE 11.5 mph - N/A   Mostly Cloudy
6:00 AM 66.2 °F 60.8 °F 83% 29.95 in 6.2 mi ENE 15.0 mph - N/A   Mostly Cloudy
6:30 AM 66.2 °F 59.0 °F 78% 29.95 in 6.2 mi ENE 12.7 mph - N/A   Scattered Clouds
7:00 AM 66.2 °F 60.8 °F 83% 29.98 in 6.2 mi ENE 13.8 mph - N/A   Scattered Clouds
7:30 AM 68.0 °F 59.0 °F 73% 29.98 in 6.2 mi ENE 16.1 mph - N/A   Scattered Clouds
8:00 AM 68.0 °F 59.0 °F 73% 29.98 in 6.2 mi ENE 19.6 mph - N/A   Scattered Clouds
8:30 AM 68.0 °F 59.0 °F 73% 29.95 in 6.2 mi ENE 17.3 mph - N/A   Scattered Clouds
9:00 AM 69.8 °F 59.0 °F 68% 29.95 in 6.2 mi ENE 16.1 mph - N/A   Scattered Clouds
9:30 AM 69.8 °F 59.0 °F 68% 29.95 in 6.2 mi ENE 17.3 mph - N/A   Mostly Cloudy
10:00 AM 71.6 °F 57.2 °F 60% 29.92 in 6.2 mi NE 18.4 mph - N/A   Mostly Cloudy
10:30 AM 71.6 °F 59.0 °F 64% 29.92 in 6.2 mi ENE 16.1 mph - N/A   Mostly Cloudy
11:00 AM 73.4 °F 59.0 °F 61% 29.89 in 6.2 mi NE 17.3 mph - N/A   Mostly Cloudy
11:30 AM 73.4 °F 57.2 °F 57% 29.89 in 6.2 mi NE 13.8 mph - N/A   Scattered Clouds
12:00 PM 73.4 °F 57.2 °F 57% 29.86 in 6.2 mi NE 10.4 mph - N/A   Mostly Cloudy
12:30 PM 73.4 °F 59.0 °F 61% 29.86 in 6.2 mi NNE 15.0 mph - N/A Rain Light Rain Showers
1:00 PM 75.2 °F 57.2 °F 53% 29.86 in 6.2 mi NNE 10.4 mph - N/A   Mostly Cloudy
1:30 PM 73.4 °F 59.0 °F 61% 29.83 in 6.2 mi East 6.9 mph - N/A Rain Light Rain Showers
2:00 PM 71.6 °F 60.8 °F 69% 29.83 in 6.2 mi South 8.1 mph - N/A   Mostly Cloudy
2:30 PM 73.4 °F 60.8 °F 65% 29.83 in 6.2 mi South 5.8 mph - N/A   Scattered Clouds
3:00 PM 73.4 °F 60.8 °F 65% 29.83 in 6.2 mi Variable 1.2 mph - N/A   Mostly Cloudy
3:18 PM 71.6 °F 60.8 °F 69% 29.83 in 6.2 mi Variable 3.5 mph - N/A Rain Rain Showers
3:30 PM 71.6 °F 60.8 °F 69% 29.83 in 6.2 mi NE 10.4 mph - N/A Rain Light Rain Showers
4:00 PM 71.6 °F 59.0 °F 64% 29.83 in 6.2 mi NE 10.4 mph - N/A Rain Light Rain Showers
4:30 PM 71.6 °F 59.0 °F 64% 29.83 in 6.2 mi NE 10.4 mph - N/A Rain Light Rain Showers
5:00 PM 69.8 °F 59.0 °F 68% 29.83 in 2.5 mi East 5.8 mph - N/A Rain Heavy Rain Showers
5:14 PM 68.0 °F 60.8 °F 78% 29.83 in 6.2 mi NE 3.5 mph - N/A Rain Rain Showers
5:22 PM 68.0 °F 60.8 °F 78% 29.83 in 6.2 mi NE 5.8 mph - N/A Rain Light Rain Showers
5:30 PM 68.0 °F 62.6 °F 83% 29.83 in 6.2 mi ENE 6.9 mph - N/A Rain Light Rain Showers
6:00 PM 68.0 °F 62.6 °F 83% 29.83 in 6.2 mi NE 5.8 mph - N/A   Mostly Cloudy
6:30 PM 68.0 °F 62.6 °F 83% 29.83 in 6.2 mi NNE 12.7 mph - N/A   Mostly Cloudy
7:00 PM 68.0 °F 62.6 °F 83% 29.83 in 6.2 mi NNE 12.7 mph - N/A   Mostly Cloudy
7:30 PM 68.0 °F 60.8 °F 78% 29.83 in 6.2 mi NNE 10.4 mph - N/A   Mostly Cloudy
8:00 PM 69.8 °F 62.6 °F 78% 29.83 in 6.2 mi NE 8.1 mph - N/A   Mostly Cloudy
8:30 PM 69.8 °F 60.8 °F 73% 29.80 in 6.2 mi ENE 9.2 mph - N/A Rain Light Rain Showers
9:00 PM 69.8 °F 60.8 °F 73% 29.80 in 6.2 mi ENE 9.2 mph - N/A   Mostly Cloudy
9:30 PM 69.8 °F 60.8 °F 73% 29.80 in 6.2 mi ENE 5.8 mph - N/A   Mostly Cloudy
10:00 PM 69.8 °F 60.8 °F 73% 29.80 in 6.2 mi East 3.5 mph - N/A Rain Light Rain Showers
10:30 PM 69.8 °F 60.8 °F 73% 29.77 in 6.2 mi Variable 1.2 mph - N/A   Mostly Cloudy
11:00 PM 69.8 °F 60.8 °F 73% 29.77 in 6.2 mi Variable 2.3 mph - N/A   Mostly Cloudy
11:30 PM 68.0 °F 60.8 °F 78% 29.77 in 6.2 mi Variable 1.2 mph - N/A Rain Light Rain Showers